Location: Bouchavesnes-Bergen
(49.9859°N, 2.9203°E)
Time: 04:25:34
(UTC+00:00)

ATLAS 5 CENTAUR R/B - Pass Details

Date: 09 March 2021
Orbit: 516 x 1142 km, 63.3° (Epoch: 10 April)

Event Time Altitude Azimuth Distance (km) Brightness Sun altitude
Exits shadow 03:19:12 - 134° (SE) 1,895 4.2 -28.1°
Reaches altitude 10° 03:19:49 10° 126° (SE) 1,821 4.2 -28.0°
Maximum altitude 03:20:58 11° 109° (ESE) 1,783 4.4 -27.8°
Drops below altitude 10° 03:22:08 10° 92° (E) 1,881 4.7 -27.7°
Sets 03:26:08 0° 58° (ENE) 2,919 6.3 -27.1°
